Location: Aufkirchen
(47.9603°N, 11.3653°E)
Time: 07:38:28
(UTC+01:00)

Transit 2A - Pass Details

Date: 05 December 2020
Orbit: 599 x 960 km, 66.7° (Epoch: 25 January)

Event Time Altitude Azimuth Distance (km) Brightness Sun altitude
Rises 18:09:21 0° 259° (WSW) 3,597 11.3 -17.1°
Reaches altitude 10° 18:12:28 10° 272° (W) 2,618 9.9 -17.6°
Maximum altitude 18:17:19 24° 325° (NW) 1,746 8.0 -18.4°
Enters shadow 18:21:45 11° 18° (NNE) 2,412 8.3 -19.1°
Drops below altitude 10° 18:21:55 10° 19° (NNE) 2,457 - -19.2°
Sets 18:24:46 0° 33° (NNE) 3,327 - -19.6°
